Torna al catalogo

CZ-2C DEB

AttivoSSO
NORAD 39225·DEBRIS·🇨🇳 China

Lanciato Jul 15, 2013 da Jiuquan Satellite Launch Center

Loading…

Prossimi Passaggi (prossime 24 ore)

TLE

AggiornatoSource: Space-Track

Epoca: Sep 14, 2026, 12:16 UTC

1 39225U 13035F   26257.51162709  .00001278  00000-0  40706-3 0  9994
2 39225  98.2410 269.0777 0158166  96.2612 265.6616 14.34499068679842

Traccia CZ-2C DEB in tempo reale con AllMySat

Download on the App Store